Location: Bishop�s Knoyle
(51.0728°N, 2.1714°W)
Time: 11:41:51
(UTC+00:00)

SEEDS - Visible Passes

Search period start: 06 December 2021 00:00
Search period end: 16 December 2021 00:00
Orbit: 582 x 603 km, 97.6° (Epoch: 05 December)

Date Brightness Start Highest point End Pass type
(mag) Time Alt. Az. Time Alt. Az. Time Alt. Az.
06 Dec ? 17:11:39 10° WSW 17:13:33 13° W 17:15:27 10° WNW visible
07 Dec ? 17:21:49 10° W 17:22:30 10° W 17:23:11 10° WNW visible
13 Dec ? 16:35:54 10° SSW 16:39:22 25° W 16:42:51 10° NW visible
14 Dec ? 16:45:04 10° SW 16:48:15 21° W 16:51:28 10° NW visible
15 Dec ? 16:54:20 10° SW 16:57:09 18° W 17:00:00 10° NW visible
